Regional Weather Roundup
Issued by NWS Sterling, VA

Home | Current Version | Previous Version | Text Only | Print | Product List | Glossary Off
Versions: 1 2 3 4 5 6 7 8 9 10 11 12 13 14 15 16 17 18 19 20 21 22 23 24 25 26 27 28 29 30 31 32 33 34 35 36 37 38 39 40 41 42 43 44 45 46 47 48 49 50

578
ASUS41 KLWX 281611
RWRLWX

REGIONAL WEATHER ROUNDUP
NATIONAL WEATHER SERVICE BALTIMORE MD/WASHINGTON DC
1200 PM EDT SUN AUG 28 2016

Note: "FAIR" indicates few or no clouds below 12,000 feet
with no significant weather and/or obstructions to visibility.
 TC=TEMPERATURE CELSIUS

 * =Non NWS site. Station does not report precipitation (e.g. rain,
    snow, etc.), thunder, or fog.

DCZ001-MDZ009-015-VAZ040>042-051-053>054-281700-
WASHINGTON METRO

CITY           SKY/WX    TMP DP  RH WIND       PRES   REMARKS
WASHINGTON NAT MOSUNNY   86  68  54 VRB3      30.25F
DULLES         MOSUNNY   85  66  53 CALM      30.25F
ANDREWS AFB    SUNNY     83  65  53 E8        30.24F
FT BELVOIR     MOSUNNY   84  67  55 SE7       30.24F
COLLEGE PARK*  SUNNY     81  64  57 CALM      30.25S
LEESBURG*      MOSUNNY   84  72  65 E5        30.26F
MANASSAS*      MOSUNNY   82  70  65 CALM      30.25F
GAITHERSBURG*  MOSUNNY   82  68  61 CALM      30.30S

$$

MDZ006>007-011-014-281700-
BALTIMORE METRO

CITY           SKY/WX    TMP DP  RH WIND       PRES   REMARKS
BWI AIRPORT    MOSUNNY   83  64  52 E7        30.25F
MARTIN STATE   MOSUNNY   82  72  69 SE5       30.27S
ANNAPOLIS      SUNNY     82  68  62 CALM      30.24F
FORT MEADE*    SUNNY    N/A N/A N/A E6        30.27F

$$

MDZ012-015-019>023-281700-
MARYLAND EASTERN SHORE

CITY           SKY/WX    TMP DP  RH WIND       PRES   REMARKS
OCEAN CITY     SUNNY     83  68  60 NE13      30.23F
SALISBURY      SUNNY     85  64  49 E13       30.23S
BAY BRIDGE AP* SUNNY     82  70  65 NE7       30.25S
CAMBRIDGE*     SUNNY     82  66  57 E6        30.23F
EASTON*        SUNNY     86  72  62 SE5       30.28S HX  92

$$

MDZ017>025-281700-
SOUTHERN MARYLAND

CITY           SKY/WX    TMP DP  RH WIND       PRES   REMARKS
PATUXENT RIVER PTSUNNY   82  67  60 NE7       30.24S
ST INIGOES     SUNNY     83  69  62 NE8       30.23S
LEONARDTOWN*   SUNNY     81  66  61 E5        30.26S

$$

MDZ003>005-281700-
NORTH CENTRAL MARYLAND

CITY           SKY/WX    TMP DP  RH WIND       PRES   REMARKS
FREDERICK*     MOSUNNY   82  73  74 W5        30.28F
HAGERSTOWN APT SUNNY     85  63  47 S9        30.25F

$$

MDZ501>502-281700-
WESTERN MARYLAND

CITY           SKY/WX    TMP DP  RH WIND       PRES   REMARKS
OAKLAND*         N/A     79  68  69 N3        30.35S
CUMBERLAND*    SUNNY     86  68  54 S5        30.28F

$$

VAZ025>031-281700-
SHENANDOAH VALLEY

CITY           SKY/WX    TMP DP  RH WIND       PRES   REMARKS
WINCHESTER*    SUNNY     86  64  48 SE7       30.25F
FRONT ROYAL*   FAIR      84  70  61 CALM      30.25F
LURAY*         FAIR      84  66  54 CALM      30.26S
NEW MARKET*    PTSUNNY   82  65  56 CALM      30.25F
STAUNTON*      MOSUNNY   82  65  56 CALM      30.29F
WAYNESBORO*    FAIR      81  63  55 SE6       30.29S

$$

WVZ021-048>050-054>055-281700-
EASTERN WEST VIRGINIA PANHANDLE

CITY           SKY/WX    TMP DP  RH WIND       PRES   REMARKS
MARTINSBURG    SUNNY     84  67  56 VRB6      30.24F
PETERSBURG*    SUNNY     87  69  54 CALM      30.23F HX  91

$$

VAZ036>039-050-281700-
CENTRAL FOOTHILLS

CITY           SKY/WX    TMP DP  RH WIND       PRES   REMARKS
CHARLOTTESVILL SUNNY     86  68  54 E7        30.25F
CULPEPER*      SUNNY     84  71  65 E3        30.25F
ORANGE*          N/A     82  68  61 CALM      30.27F
GORDONSVILLE*  FAIR      84  70  61 NE5       30.24F
WARRENTON*     FAIR      86  64  47 E5        30.25S

$$

VAZ055>057-281700-
NORTH AND CENTRAL PIEDMONT

CITY           SKY/WX    TMP DP  RH WIND       PRES   REMARKS
FREDERICKSBRG*   N/A     83  70  65 NE5       30.23F
STAFFORD*      PTSUNNY   85  66  53 E3        30.28F

$$

NCZ024-NYZ072-PAZ021-071-VAZ022-071-281700-
OTHER REGIONAL OBSERVATIONS

CITY           SKY/WX    TMP DP  RH WIND       PRES   REMARKS
NEW YORK CITY  MOSUNNY   85  64  49 MISG      30.28F
PHILADELPHIA   MOSUNNY   85  63  47 VRB3      30.25F
PITTSBURGH     CLOUDY    84  69  60 W5        30.23F
ROANOKE        SUNNY     85  65  51 CALM      30.28F
RICHMOND       MOSUNNY   86  67  52 VRB6      30.22F
RALEIGH        PTSUNNY   81  70  69 NE7       30.22S

$$

ANZ530>537-281700-
MARINE OBSERVATIONS

STATION/POSITION TIME  TEMP    WIND        PRES
                       AIR SEA DIR/SP/G
                 (UTC) (F)     (DEG/KT/KT) (MB)
THOMAS PT LIGHT  1600   78 83  360/  4/  5 1025.7F
BALT KEY BRIDGE  1542   78     130/  5/  6 1024.5F
COVE POINT       1542   78      30/  8/  9 1024.6F
LEWISETTA        1542   79 83   90/  8/ 10 1023.5R
SOLOMONS ISLAND  1542   79 84   80/  7/  9   N/A
PINEY POINT      1548           80/  4/  5   N/A

$$





USA.gov is the U.S. government's official web portal to all federal, state and local government web resources and services.